Starlink 33937

operational
NORAD ID: 63704 Int'l Des: 2025-087 Owner: SPXS Country: US Constellation: starlink
LEOCIRCULAR

About Starlink 33937

Description loading...

Live Position

Loading 3D Globe...

Upcoming Passes

Altitude History

Altitude vs Time

uPlot chart will show altitude changes over time

Two-Line Element Set

1 63704U 25087H 25258.45054523 .00047418 00000-0 16016-2 0 9992
2 63704 53.1571 313.2508 0000928 95.5055 264.6051 15.30226294 22376
Epoch: Sep 15, 2025 • Age: 19 hours

Current Status

Altitude 475.4 km
Velocity 7.63 km/s
Sub-Earth Point 4.21°N, 127.37°W
Launch Date Apr 28, 2025
Age 0.3 years
Type internet

Technical Details

Classification Payload
Mass 575.00 kg
Dry Mass 530.00 kg
Total Mass 575.00 kg
Length 0.30 m
Diameter 4.10 m
Span 29.00 m
Shape Box + pan
Manufacturer SPXS
Bus Type Starlink V2MO
Phase Status In Orbit
Owner/State SPXS/US

Large Constellations

Loading constellations...